SL-14 R/B

Satellite information

Favourite Embed

Satellite Type and Status

ROCKET BODYIN ORBIT

Key statistics

Satellite SL-14 R/B at a glance.

Uptime

14124

Days in orbit

Revolutions

≈ 13.8

Per day

Orbit

LEO

Low Earth Orbit

Inclination

82.5

Latest

Satellite identification and parameters

Extended collection of information and parameters for SL-14 R/B.

Object identification

Identified? True

Debris? False

Object name: SL-14 R/B

International designator: 1987-001B

Object number (NORAD): 17291

Object ID (CCSDS): 17291

Country: COMMONWEALTH OF INDEPENDENT STATES (CIS)

Current information (Y/N): Y

RCS size: LARGE

Orbital parameters

Period: 103.995 minutes

Inclination: 82.471 deg

SMA: 7325.481 km

Apoapsis: 954.65 km

Periapsis: 940.041 km

RAAN: 329.1276 deg

Eccentricy: 0.00099713

Argument of periapsis: 265.553 deg

Mean anomaly: 94.4491 deg

Mean motion: 13.84677297 rev/day

Mean motion (dot): 0.00000043 rev/day2

B* drag term: 0.000025674571 1/REarth

Two-line elements (TLE)

Creation date: Sept. 6, 2025, 2:09 a.m.

Reference frame: TEME

Reference center: EARTH

Epoch: Sept. 5, 2025, 7:53 p.m. UTC

TLE line 0: 0 SL-14 R/B

TLE line 1: 1 17291U 87001B 25248.82861264 .00000043 00000-0 25675-4 0 9990

TLE line 2: 2 17291 82.4710 329.1276 0009971 265.5530 94.4491 13.84677297953930

Live tracking on map

Real-time ground track for satellite SL-14 R/B.

In-orbit conjunctions

A list of the most updated potential collisions computed for object SL-14 R/B.

Target Orbit TCA Probability of collision Miss distance Type
NIMBUS 7 SSO 2024-08-09 06:06:43 0.001264182 43.0 (m) PAYLOAD

Associated space launch

Second generation soviet meteorological satellite

SL-14 R/B was lifted into orbit during the mission ‘Tsiklon-3 | Meteor-2 15’, on board a Tsiklon-3 space rocket.

The launch took place on Jan. 5, 1987, 1:20 a.m. from 32/2.

For more information about the launch, click the button.

Launch to space Tsiklon-3 | Meteor-2 15
Tsiklon-3 | Meteor-2 15

Agency: N/A

Status: Launch Successful

Launch date: Jan. 5, 1987, 1:20 a.m. UTC

Rocket: Tsiklon-3

Launch pad: 32/2

Location: Plesetsk Cosmodrome, Russian Federation

...

Latest news about this satellite

There are no fresh news available about this satellite. Check back as we update our databases every day.


Newsletter sign-up

Weekly statistics, charts and insights to help you stay on top of the space industry.